When you browse on this site, cookies collect data to enhance your experience and personalize the content and advertising you see.
Visit our Privacy Policy to learn more. By continuing to use the site, you agree to this use of cookies and data.
  • In Hungary
  • List of Countries
  • For 7 days
  • Water Temperature
  • Weather Map
  • News
  • Weather Widgets
  • user-avatar
    Login

    Hourly Weather Chlebowice

    Today, 20 August, Tuesday

    Time Temperature Precipitation Wind Pressure Humidity
    00:00 +20°C° 0 mm 1 mps 754 mmHg 84%
    01:00 +20°C° 0 mm 1 mps 755 mmHg 87%
    02:00 +20°C° 0 mm 1 mps 755 mmHg 86%
    03:00 +20°C° 0 mm 1 mps 755 mmHg 85%
    04:00 +20°C° 0 mm 1 mps 755 mmHg 84%
    05:00 +20°C° 0 mm 1 mps 756 mmHg 81%
    06:00 +21°C° 0 mm 1 mps 756 mmHg 77%
    07:00 +21°C° 0 mm 1 mps 756 mmHg 73%
    08:00 +23°C° 0 mm 1 mps 756 mmHg 65%
    09:00 +24°C° 0 mm 1 mps 756 mmHg 57%
    10:00 +25°C° 0 mm 1 mps 756 mmHg 49%
    11:00 +26°C° 0 mm 1 mps 756 mmHg 46%
    12:00 +27°C° 0 mm 2 mps 756 mmHg 43%
    13:00 +27°C° 0 mm 2 mps 756 mmHg 40%
    14:00 +27°C° 0 mm 3 mps 756 mmHg 42%
    15:00 +26°C° 0 mm 3 mps 756 mmHg 45%
    16:00 +26°C° 0 mm 3 mps 755 mmHg 47%
    17:00 +25°C° 0.1 mm 3 mps 755 mmHg 49%
    18:00 +23°C° 0.1 mm 4 mps 755 mmHg 51%
    19:00 +22°C° 0.1 mm 4 mps 755 mmHg 54%
    20:00 +21°C° 0.6 mm 4 mps 755 mmHg 61%
    21:00 +20°C° 0.6 mm 4 mps 755 mmHg 69%
    22:00 +19°C° 0.6 mm 5 mps 755 mmHg 77%
    23:00 +17°C° 1.4 mm 5 mps 754 mmHg 82%

    Tomorrow, 21 August, Wednesday

    Time Temperature Precipitation Wind Pressure Humidity
    00:00 +17°C° 1.4 mm 6 mps 754 mmHg 86%
    01:00 +16°C° 1.4 mm 6 mps 754 mmHg 91%
    02:00 +16°C° 0.5 mm 6 mps 754 mmHg 91%
    03:00 +16°C° 0.5 mm 6 mps 754 mmHg 92%
    04:00 +16°C° 0.5 mm 6 mps 754 mmHg 93%
    05:00 +16°C° 0.2 mm 6 mps 755 mmHg 91%
    06:00 +15°C° 0.2 mm 6 mps 755 mmHg 90%
    07:00 +15°C° 0.2 mm 6 mps 756 mmHg 89%
    08:00 +15°C° 0.1 mm 6 mps 757 mmHg 87%
    09:00 +15°C° 0.1 mm 5 mps 758 mmHg 85%
    10:00 +15°C° 0.1 mm 5 mps 758 mmHg 83%
    11:00 +17°C° 0 mm 4 mps 759 mmHg 77%
    12:00 +19°C° 0 mm 4 mps 759 mmHg 71%
    13:00 +20°C° 0 mm 4 mps 759 mmHg 65%
    14:00 +20°C° 0.1 mm 4 mps 759 mmHg 65%
    15:00 +20°C° 0.1 mm 3 mps 759 mmHg 66%
    16:00 +20°C° 0.1 mm 3 mps 759 mmHg 66%
    17:00 +19°C° 0 mm 2 mps 760 mmHg 71%
    18:00 +18°C° 0 mm 2 mps 760 mmHg 76%
    19:00 +18°C° 0 mm 1 mps 760 mmHg 81%
    20:00 +18°C° 0 mm 1 mps 760 mmHg 83%
    21:00 +16°C° 0 mm 1 mps 760 mmHg 84%
    22:00 +16°C° 0 mm 1 mps 761 mmHg 85%
    23:00 +15°C° 0 mm 1 mps 761 mmHg 86%

    Day after tomorrow, 22 August, Thursday

    Time Temperature Precipitation Wind Pressure Humidity
    00:00 +15°C° 0 mm 1 mps 761 mmHg 86%
    01:00 +15°C° 0 mm 1 mps 761 mmHg 87%
    02:00 +15°C° 0 mm 1 mps 761 mmHg 88%
    03:00 +14°C° 0 mm 1 mps 761 mmHg 88%
    04:00 +13°C° 0 mm 0 mps 761 mmHg 89%
    05:00 +15°C° 0 mm 1 mps 761 mmHg 86%
    06:00 +16°C° 0 mm 1 mps 761 mmHg 83%
    07:00 +18°C° 0 mm 1 mps 761 mmHg 80%
    08:00 +18°C° 0 mm 2 mps 761 mmHg 74%
    09:00 +20°C° 0 mm 2 mps 761 mmHg 68%
    10:00 +21°C° 0 mm 2 mps 761 mmHg 62%
    11:00 +23°C° 0 mm 2 mps 761 mmHg 58%
    12:00 +23°C° 0 mm 2 mps 761 mmHg 54%
    13:00 +24°C° 0 mm 2 mps 761 mmHg 51%
    14:00 +24°C° 0 mm 2 mps 760 mmHg 50%
    15:00 +24°C° 0 mm 2 mps 760 mmHg 49%
    16:00 +24°C° 0 mm 2 mps 760 mmHg 48%
    17:00 +23°C° 0 mm 2 mps 760 mmHg 53%
    18:00 +20°C° 0 mm 2 mps 760 mmHg 58%
    19:00 +19°C° 0 mm 2 mps 760 mmHg 62%
    20:00 +18°C° 0 mm 2 mps 760 mmHg 64%
    21:00 +17°C° 0 mm 2 mps 760 mmHg 66%
    22:00 +17°C° 0 mm 2 mps 761 mmHg 68%
    23:00 +16°C° 0 mm 2 mps 761 mmHg 70%

    23 August, Friday

    Time Temperature Precipitation Wind Pressure Humidity
    00:00 +16°C° 0 mm 2 mps 761 mmHg 72%
    01:00 +15°C° 0 mm 2 mps 761 mmHg 74%
    02:00 +15°C° 0 mm 2 mps 760 mmHg 76%
    03:00 +15°C° 0 mm 2 mps 760 mmHg 77%
    04:00 +14°C° 0 mm 2 mps 760 mmHg 79%
    05:00 +15°C° 0 mm 2 mps 761 mmHg 76%
    06:00 +16°C° 0 mm 2 mps 761 mmHg 74%
    07:00 +18°C° 0 mm 2 mps 761 mmHg 71%
    08:00 +19°C° 0 mm 3 mps 761 mmHg 64%
    09:00 +21°C° 0 mm 3 mps 761 mmHg 57%
    10:00 +24°C° 0 mm 3 mps 761 mmHg 50%
    11:00 +25°C° 0 mm 3 mps 761 mmHg 47%
    12:00 +25°C° 0 mm 3 mps 760 mmHg 43%
    13:00 +26°C° 0 mm 3 mps 760 mmHg 40%
    14:00 +26°C° 0 mm 3 mps 760 mmHg 40%
    15:00 +26°C° 0 mm 3 mps 759 mmHg 41%
    16:00 +26°C° 0 mm 3 mps 759 mmHg 41%
    17:00 +24°C° 0 mm 3 mps 759 mmHg 46%
    18:00 +22°C° 0 mm 3 mps 759 mmHg 51%
    19:00 +20°C° 0 mm 2 mps 759 mmHg 56%
    20:00 +19°C° 0 mm 3 mps 759 mmHg 59%
    21:00 +18°C° 0 mm 3 mps 759 mmHg 61%
    22:00 +18°C° 0 mm 3 mps 759 mmHg 63%
    23:00 +17°C° 0 mm 3 mps 759 mmHg 66%

    24 August, Saturday

    Time Temperature Precipitation Wind Pressure Humidity
    00:00 +16°C° 0 mm 3 mps 759 mmHg 68%
    01:00 +16°C° 0 mm 3 mps 759 mmHg 70%
    02:00 +16°C° 0 mm 3 mps 759 mmHg 72%
    03:00 +14°C° 0 mm 3 mps 759 mmHg 74%
    04:00 +14°C° 0 mm 3 mps 758 mmHg 75%
    05:00 +16°C° 0 mm 3 mps 758 mmHg 73%
    06:00 +17°C° 0 mm 3 mps 758 mmHg 70%
    07:00 +18°C° 0 mm 4 mps 758 mmHg 67%
    08:00 +20°C° 0 mm 4 mps 758 mmHg 61%
    09:00 +21°C° 0 mm 4 mps 758 mmHg 55%
    10:00 +23°C° 0 mm 4 mps 758 mmHg 49%
    11:00 +25°C° 0 mm 4 mps 757 mmHg 47%
    12:00 +26°C° 0 mm 4 mps 757 mmHg 45%
    13:00 +27°C° 0 mm 4 mps 756 mmHg 42%
    14:00 +27°C° 0 mm 4 mps 756 mmHg 44%
    15:00 +27°C° 0 mm 4 mps 756 mmHg 46%
    16:00 +27°C° 0 mm 3 mps 756 mmHg 47%
    17:00 +25°C° 0 mm 3 mps 755 mmHg 53%
    18:00 +24°C° 0 mm 3 mps 755 mmHg 58%
    19:00 +21°C° 0 mm 2 mps 755 mmHg 63%
    20:00 +20°C° 0 mm 2 mps 755 mmHg 65%
    21:00 +20°C° 0 mm 2 mps 755 mmHg 68%
    22:00 +19°C° 0 mm 2 mps 755 mmHg 70%
    23:00 +19°C° 0 mm 2 mps 755 mmHg 71%

    25 August, Sunday

    Time Temperature Precipitation Wind Pressure Humidity
    00:00 +18°C° 0 mm 2 mps 755 mmHg 72%
    01:00 +18°C° 0 mm 2 mps 755 mmHg 74%
    02:00 +17°C° 0 mm 2 mps 755 mmHg 75%
    03:00 +17°C° 0 mm 2 mps 755 mmHg 76%
    04:00 +17°C° 0 mm 2 mps 755 mmHg 78%
    05:00 +18°C° 0 mm 3 mps 755 mmHg 75%
    06:00 +18°C° 0 mm 3 mps 755 mmHg 72%
    07:00 +19°C° 0 mm 3 mps 755 mmHg 69%
    08:00 +21°C° 0 mm 4 mps 756 mmHg 64%
    09:00 +23°C° 0 mm 4 mps 756 mmHg 59%
    10:00 +25°C° 0 mm 4 mps 756 mmHg 54%
    11:00 +26°C° 0 mm 4 mps 756 mmHg 52%
    12:00 +27°C° 0 mm 4 mps 756 mmHg 49%
    13:00 +28°C° 0 mm 4 mps 756 mmHg 47%
    14:00 +28°C° 0 mm 4 mps 755 mmHg 47%
    15:00 +28°C° 0 mm 4 mps 755 mmHg 48%
    16:00 +28°C° 0 mm 3 mps 755 mmHg 48%
    17:00 +27°C° 0 mm 3 mps 755 mmHg 54%
    18:00 +25°C° 0 mm 3 mps 755 mmHg 60%
    19:00 +24°C° 0 mm 3 mps 755 mmHg 66%
    20:00 +22°C° 0 mm 3 mps 756 mmHg 67%
    21:00 +21°C° 0 mm 3 mps 756 mmHg 68%
    22:00 +21°C° 0 mm 4 mps 756 mmHg 69%
    23:00 +20°C° 0.4 mm 3 mps 756 mmHg 73%
    Show more